Volver al catálogo

COSMOS 2491 DEB

ActivoPO
NORAD 45030·DEBRIS·🇷🇺 Russia

Lanzado Dec 25, 2013 desde Plesetsk Cosmodrome

Loading…

Próximos Pases (próximas 24 horas)

TLE

ActualizadoSource: Space-Track

Época: Sep 11, 2026, 03:27 UTC

1 45030U 13076T   26254.14393997  .00004266  00000-0  17529-1 0  9996
2 45030  82.3972  43.2525 0289320 281.5616  75.3135 12.72417232307048

Sigue COSMOS 2491 DEB en tiempo real con AllMySat

Download on the App Store